User: anonymous   Login
Location: New Town
(33.2710°N, 90.7534°W)
Time: 12:10:08
(UTC+00:00)
Language:

Explorer 11/Cluster Stage 4 - Orbit

View from above orbital plane
View from above orbital plane
View from above satellite
View from above satellite

Ground track
Ground track

The orbit data is extracted from the following two-line orbital elements,

1 00107U 61013A   21132.64952289  .00000418  00000-0  33238-4 0  9999
2 00107  28.7895 121.9469 0545723 230.6637 124.4332 14.09188492 12709
Epoch (UTC): 12 May 2021 15:35:18
Eccentricity: 0.0545723
inclination: 28.7895°
perigee height: 467 km
apogee height: 1257 km
right ascension of ascending node: 121.9469°
argument of perigee: 230.6637°
revolutions per day: 14.09188492
mean anomaly at epoch: 124.4332°
orbit number at epoch: 1270

The dashed part of the orbit path shows where the satellite is in the earth's shadow,  

DLR